Wetbulb
34.34 35.08 35.46 36.91 37.84 37.75 37.81 36.98 34.95 33.47 37.00 48.23 53.69 57.45 57.05 62.01 60.01 60.25 61.98 57.58 59.62 60.60 61.15 60.58 59.83 59.59 59.52 59.67 58.74 58.12 57.22 55.84 56.42 55.21 54.72 54.76 54.50 54.12
33.93 33.96 34.80 36.07 36.79 37.03 37.59 36.86 35.20 33.73 32.52 40.88 43.91 42.61 55.83 58.54 57.62 61.06 61.47 55.63 57.92 59.44 59.46 58.45 58.11 58.24 58.25 58.06 57.39 56.95 56.33 55.78 55.31 54.92 54.62 54.57 53.99 53.17
33.01 32.98 33.33 35.13 35.41 36.16 36.92 36.75 35.54 34.47 32.42 36.32 40.48 42.83 43.57 56.35 57.45 61.17 60.08 59.79 60.00 57.87 58.52 57.72 57.33 57.04 57.14 56.59 56.15 55.94 55.51 55.29 55.31 54.60 54.48 54.10 53.29 52.33
31.86 32.26 32.41 33.67 34.00 35.16 35.10 35.02 35.19 35.63 33.83 32.59 37.55 40.86 43.89 55.69 57.65 60.11 59.80 60.09 61.15 56.66 56.99 56.98 56.77 56.47 56.23 55.57 54.98 54.56 53.92 53.70 53.59 53.92 54.29 53.37 52.41 51.66
31.39 31.32 31.63 32.49 32.62 33.77 33.91 34.23 34.96 35.37 35.41 33.60 33.68 39.80 41.78 46.11 55.42 59.43 58.87 59.10 59.73 55.23 56.37 56.22 56.33 55.97 55.40 54.75 54.04 53.32 52.29 52.23 52.36 52.30 52.40 52.24 51.82 51.14
31.17 31.32 31.42 31.65 31.97 32.83 33.26 33.68 34.17 34.30 35.11 34.29 34.10 37.05 40.65 43.29 47.45 54.08 56.65 58.40 57.96 57.56 56.21 56.40 55.56 54.71 54.64 54.14 52.82 51.09 50.52 51.12 51.80 51.70 51.08 50.50 50.27 50.72
30.66 30.82 31.46 31.97 32.70 33.41 33.23 32.95 33.18 32.63 33.20 33.39 33.26 35.29 38.75 40.84 44.74 54.19 55.94 57.13 57.55 58.05 56.92 56.17 56.12 55.29 54.52 52.90 50.93 49.51 50.13 50.74 50.90 50.95 50.66 50.11 49.55 49.90
29.34 30.54 31.29 31.50 31.95 33.38 34.10 34.56 34.29 32.47 32.23 32.76 33.09 33.11 35.89 39.35 42.99 45.08 54.88 54.77 53.06 58.11 56.19 54.67 56.30 55.08 54.58 54.60 51.53 50.26 50.07 50.21 50.12 50.06 49.71 49.29 48.81 48.98
29.96 30.12 29.90 31.02 32.07 31.53 33.04 34.58 34.95 35.95 36.06 34.44 33.27 34.02 35.29 38.98 42.25 42.95 47.67 54.68 53.73 56.02 55.92 53.22 55.55 54.11 54.61 54.14 50.16 49.72 49.74 49.50 49.34 49.23 48.75 48.24 47.92 48.08
30.30 30.66 30.61 30.59 31.24 31.39 30.79 31.22 31.80 33.79 35.26 36.07 36.21 36.27 37.20 39.34 41.49 41.66 41.23 43.27 55.08 55.90 56.42 51.65 54.36 53.07 53.76 54.44 49.78 49.39 49.40 49.12 48.73 48.56 48.23 47.57 46.89 46.89
29.60 30.09 30.54 30.79 32.32 32.85 30.92 29.62 30.30 31.45 34.38 36.25 37.18 38.36 39.25 39.18 40.11 39.69 39.17 40.92 48.97 53.05 55.66 52.85 52.83 51.95 52.02 51.91 50.68 48.92 48.97 48.85 48.52 48.32 47.89 47.00 46.28 46.20
28.52 29.15 31.05 31.03 32.80 32.97 30.71 30.64 29.25 30.11 31.24 31.87 33.53 35.72 37.62 38.31 39.51 39.38 38.94 38.19 41.63 48.23 54.65 51.84 51.98 47.18 43.94 50.70 49.73 48.96 48.94 48.43 48.16 48.02 47.60 46.70 45.99 46.37
27.32 27.79 29.30 31.22 32.10 33.21 33.66 31.60 30.96 32.60 32.26 31.78 32.19 33.07 35.04 36.49 37.07 38.77 39.42 39.17 38.55 39.52 47.16 48.90 51.51 48.97 43.38 41.66 48.01 48.81 49.33 48.35 48.17 47.67 47.18 46.44 45.63 46.01
27.39 28.52 29.53 30.71 31.28 31.77 32.14 34.83 34.16 33.75 31.93 31.01 31.34 31.52 32.01 33.40 35.44 36.79 37.93 39.20 40.30 40.01 41.90 43.58 45.36 50.59 41.05 42.36 43.56 47.36 48.46 48.55 48.16 47.08 46.71 46.51 45.78 45.79
30.78 31.05 31.43 30.83 30.93 31.00 32.19 33.20 35.80 33.40 31.75 30.22 29.52 31.10 32.89 34.80 35.61 36.37 37.51 37.92 38.89 39.85 41.28 42.61 42.71 50.98 48.65 45.78 44.30 45.54 45.71 47.09 47.90 46.80 46.24 45.12 44.23 44.89
29.90 30.51 30.60 31.55 32.34 31.09 30.91 31.60 32.88 33.88 33.14 31.25 30.69 31.72 33.81 34.18 34.35 37.45 35.59 36.39 35.75 35.57 40.13 42.43 42.90 43.75 47.96 47.11 46.23 45.33 47.31 43.52 46.66 46.87 46.40 45.56 44.76 44.62
29.04 28.48 27.29 26.78 27.97 29.33 30.35 30.67 31.94 32.72 32.25 33.35 31.96 31.06 31.24 32.13 32.96 35.17 35.50 34.89 34.17 34.89 34.26 36.63 42.30 43.94 43.89 44.10 44.12 46.00 46.50 45.80 46.29 45.97 44.96 43.05 43.58 43.91
29.76 27.55 26.90 26.88 26.19 27.67 28.87 30.04 30.92 30.95 31.94 32.87 32.97 31.95 30.61 30.71 31.02 32.02 32.90 32.96 33.03 34.15 34.14 35.44 36.25 36.54 36.62 39.07 45.01 45.01 45.91 45.52 45.05 45.58 44.86 42.57 41.87 43.57
28.72 29.02 27.92 27.48 27.37 27.80 28.34 30.45 30.09 31.14 32.01 31.73 33.32 32.14 31.62 30.98 31.16 31.16 31.57 32.14 32.57 34.55 35.49 35.84 37.87 37.39 35.53 36.78 37.20 42.94 44.89 44.96 43.58 43.63 44.05 43.77 42.39 42.38
28.62 28.43 28.24 28.76 28.31 28.57 28.96 29.34 30.70 31.34 31.38 31.49 32.17 33.05 32.27 31.52 30.70 30.73 31.09 30.82 30.84 31.96 33.67 35.94 37.12 38.70 37.65 37.67 34.67 39.61 40.43 43.80 43.11 42.84 42.41 43.90 40.31 42.43
27.47 28.14 28.92 29.16 29.73 29.75 30.04 30.38 30.82 31.01 31.31 31.35 31.43 31.79 31.96 31.69 31.19 31.10 31.65 32.11 32.12 31.64 31.22 33.40 36.73 41.03 35.67 36.27 35.05 35.85 43.36 39.13 44.54 43.59 42.11 41.68 39.69 35.41
26.60 26.89 28.33 29.45 29.87 30.56 30.54 30.67 30.45 30.60 31.25 31.17 31.40 31.51 31.71 31.72 30.96 30.70 30.81 30.42 31.28 31.45 31.79 33.58 34.50 36.59 35.25 37.76 40.15 36.02 41.58 42.38 38.24 41.08 42.42 40.72 37.37 34.22
26.35 27.79 28.17 29.13 30.43 30.69 30.88 30.43 30.21 30.45 30.78 31.94 31.50 31.70 31.74 30.91 31.42 31.00 30.23 30.89 31.27 31.14 32.38 33.53 33.86 34.84 36.78 37.43 38.83 39.53 39.15 39.96 40.81 39.81 40.71 39.98 39.29 39.28
MSLP
1017.91 1017.78 1017.20 1016.64 1016.29 1016.11 1016.04 1016.15 1015.94 1014.78 1012.39 1010.15 1008.85 1009.19 1008.00 1007.54 1007.96 1008.90 1010.22 1011.57 1012.55 1013.49 1014.25 1015.43 1016.66 1017.89 1018.92 1019.88 1020.95 1022.09 1022.85 1023.69 1024.54 1025.12 1025.61 1025.98 1026.39 1026.79
1017.38 1017.30 1016.83 1016.26 1015.88 1015.70 1015.71 1015.80 1015.87 1015.65 1014.51 1011.94 1010.41 1009.56 1008.27 1007.75 1007.11 1007.77 1009.19 1010.99 1012.04 1012.78 1013.89 1015.04 1016.38 1017.56 1018.65 1019.72 1020.81 1021.91 1022.93 1023.72 1024.50 1025.13 1025.59 1026.03 1026.59 1027.18
1016.82 1016.77 1016.44 1016.01 1015.54 1015.13 1015.07 1015.24 1015.31 1015.07 1014.39 1012.50 1011.83 1010.50 1009.51 1007.65 1007.74 1006.85 1008.39 1010.24 1011.51 1012.30 1013.37 1014.55 1015.86 1017.10 1018.25 1019.38 1020.64 1021.74 1022.89 1023.70 1024.53 1025.07 1025.58 1026.15 1026.73 1027.41
1016.14 1016.15 1015.90 1015.59 1015.11 1014.83 1014.53 1014.39 1014.52 1014.32 1014.51 1012.71 1012.22 1011.38 1009.97 1008.27 1007.28 1006.17 1007.71 1009.26 1010.26 1011.95 1012.91 1014.24 1015.41 1016.44 1017.73 1019.00 1020.26 1021.43 1022.74 1023.60 1024.47 1025.02 1025.54 1026.21 1026.86 1027.48
1015.69 1015.50 1015.25 1015.09 1014.71 1014.47 1014.21 1014.01 1014.03 1013.75 1013.88 1013.47 1012.43 1011.94 1011.12 1009.52 1007.36 1006.10 1006.96 1008.58 1009.63 1011.42 1012.64 1013.80 1015.04 1015.95 1017.02 1018.52 1019.79 1020.97 1022.38 1023.47 1024.45 1025.06 1025.63 1026.28 1026.93 1027.58
1014.98 1014.90 1014.61 1014.41 1014.06 1013.77 1013.70 1013.64 1013.40 1013.65 1013.10 1013.09 1012.68 1012.04 1011.41 1009.41 1007.98 1006.91 1006.47 1007.58 1008.86 1010.69 1012.04 1013.13 1014.52 1015.55 1016.61 1017.66 1019.37 1020.37 1021.73 1023.10 1024.31 1025.06 1025.61 1026.30 1026.96 1027.55
1014.17 1014.10 1013.91 1013.58 1013.47 1013.32 1012.87 1012.82 1012.63 1012.67 1012.68 1012.76 1012.13 1012.00 1010.85 1009.72 1008.51 1006.71 1005.96 1006.55 1007.94 1009.20 1010.97 1012.73 1014.07 1015.27 1016.55 1017.58 1018.58 1019.63 1020.89 1022.43 1023.95 1024.96 1025.52 1026.10 1026.87 1027.44
1013.32 1013.12 1013.01 1012.95 1012.77 1012.75 1012.44 1012.16 1012.43 1012.29 1011.96 1011.47 1011.38 1011.21 1010.12 1009.95 1008.94 1007.62 1005.96 1005.86 1006.60 1008.18 1009.88 1011.70 1012.83 1014.34 1015.63 1016.78 1018.14 1018.91 1019.96 1021.24 1023.21 1024.52 1025.29 1025.92 1026.72 1027.33
1012.45 1012.28 1012.22 1012.06 1011.99 1011.83 1011.89 1011.53 1011.44 1011.42 1011.27 1011.49 1011.14 1010.74 1010.28 1009.98 1009.70 1007.83 1006.37 1005.16 1005.41 1006.84 1008.76 1010.63 1011.99 1013.48 1014.86 1015.79 1017.40 1018.75 1019.29 1020.40 1022.14 1023.62 1024.66 1025.59 1026.40 1027.12
1011.70 1011.47 1011.25 1011.14 1011.22 1011.08 1011.06 1010.96 1010.72 1010.71 1010.40 1010.57 1010.49 1010.24 1010.33 1010.28 1009.53 1008.82 1008.25 1006.98 1005.45 1006.40 1007.60 1009.40 1011.23 1012.61 1014.22 1015.08 1016.67 1017.95 1019.13 1019.78 1021.31 1022.84 1024.03 1025.04 1025.94 1026.77
1010.82 1010.68 1010.45 1010.23 1010.34 1010.36 1010.37 1010.36 1010.15 1009.92 1010.20 1009.92 1009.64 1009.92 1010.26 1009.88 1010.00 1009.25 1008.57 1007.73 1006.05 1005.84 1006.58 1008.37 1010.24 1012.25 1013.68 1014.85 1016.41 1017.32 1018.71 1019.59 1020.55 1021.83 1023.21 1024.38 1025.40 1026.36
1009.74 1009.60 1009.51 1009.37 1009.38 1009.45 1009.58 1009.63 1009.33 1009.25 1009.68 1009.63 1009.49 1009.55 1009.54 1009.59 1009.75 1009.16 1009.29 1008.87 1007.30 1006.69 1006.30 1007.79 1009.48 1011.24 1013.42 1014.58 1015.78 1017.30 1018.26 1019.21 1020.03 1021.22 1022.09 1023.35 1024.75 1025.80
1008.73 1008.59 1008.51 1008.39 1008.35 1008.42 1008.62 1008.87 1008.83 1009.11 1009.03 1009.27 1009.23 1009.38 1009.51 1009.49 1009.29 1009.21 1009.22 1009.23 1008.80 1007.92 1007.56 1007.37 1008.56 1010.07 1011.76 1013.75 1015.01 1016.32 1017.24 1018.85 1020.01 1021.04 1021.91 1022.54 1023.50 1024.36
1007.65 1007.58 1007.55 1007.51 1007.49 1007.59 1007.59 1007.79 1008.08 1008.29 1008.55 1008.71 1008.75 1008.52 1008.13 1008.65 1009.02 1008.85 1009.19 1009.31 1009.09 1009.02 1009.11 1008.62 1008.31 1008.34 1010.73 1012.86 1013.95 1015.59 1016.76 1017.81 1018.84 1020.28 1021.47 1022.57 1023.55 1023.99
1006.74 1006.62 1006.63 1006.65 1006.61 1006.62 1006.82 1006.89 1007.10 1007.29 1007.60 1007.97 1008.11 1008.00 1008.02 1008.28 1008.28 1008.22 1008.81 1009.08 1008.72 1008.98 1009.27 1009.23 1009.07 1008.39 1009.31 1010.46 1012.21 1013.91 1015.51 1016.86 1017.89 1018.97 1020.31 1021.51 1022.46 1023.50
1005.66 1005.55 1005.61 1005.79 1005.78 1005.55 1005.70 1005.89 1005.90 1005.94 1006.25 1006.96 1007.37 1007.54 1007.96 1007.95 1007.84 1007.88 1008.10 1008.34 1008.74 1008.58 1009.21 1009.14 1009.34 1009.56 1009.50 1010.12 1011.25 1012.52 1013.93 1015.27 1016.97 1017.95 1018.73 1020.47 1021.56 1022.04
1004.70 1004.78 1004.87 1005.02 1004.95 1004.99 1004.74 1004.77 1005.28 1005.55 1006.07 1006.00 1006.47 1007.07 1007.32 1007.51 1007.63 1007.68 1007.98 1008.34 1008.59 1008.73 1009.07 1008.77 1009.13 1009.53 1009.87 1009.95 1011.07 1011.71 1012.72 1013.96 1015.50 1016.59 1018.01 1019.35 1020.34 1020.87
1003.34 1003.51 1003.61 1003.76 1003.83 1003.94 1004.21 1003.99 1004.21 1004.69 1004.94 1005.30 1005.53 1006.07 1006.53 1006.82 1007.25 1007.54 1008.01 1008.33 1008.31 1008.79 1008.99 1008.83 1009.32 1009.68 1009.97 1009.98 1010.04 1010.87 1011.94 1013.10 1014.22 1015.47 1016.71 1018.07 1019.14 1019.81
1002.11 1002.06 1002.09 1002.38 1002.68 1002.81 1002.89 1003.28 1003.37 1003.59 1004.15 1004.60 1004.58 1005.01 1005.58 1006.17 1006.52 1006.85 1007.44 1008.17 1008.10 1008.35 1008.63 1008.68 1008.84 1009.43 1009.89 1009.91 1010.01 1010.21 1010.93 1012.09 1013.49 1014.62 1015.45 1016.18 1017.40 1018.20
1001.12 1000.92 1000.86 1001.11 1001.32 1001.63 1001.90 1002.07 1002.38 1002.63 1003.04 1003.47 1004.12 1004.50 1004.94 1005.42 1005.87 1006.23 1006.54 1007.64 1008.04 1008.46 1008.43 1008.46 1008.46 1008.70 1009.28 1009.61 1010.12 1010.25 1010.36 1011.18 1012.34 1013.39 1014.65 1015.84 1016.54 1017.58
1000.32 1000.13 1000.02 1000.07 1000.31 1000.59 1000.76 1000.97 1001.34 1001.81 1002.21 1002.63 1003.17 1003.47 1004.12 1004.75 1005.25 1005.44 1005.76 1006.49 1006.83 1007.44 1007.74 1007.93 1008.00 1008.38 1008.82 1009.27 1009.95 1010.20 1010.24 1010.65 1010.71 1011.89 1013.43 1014.74 1015.99 1017.13
999.93 999.72 999.52 999.45 999.46 999.65 999.96 1000.11 1000.41 1000.85 1001.41 1001.95 1002.46 1002.99 1003.30 1003.99 1004.63 1004.92 1005.39 1006.22 1006.47 1007.05 1007.30 1007.59 1007.86 1008.05 1008.68 1008.44 1009.08 1009.65 1009.93 1010.47 1011.17 1011.41 1011.73 1012.20 1013.88 1015.62
999.47 999.24 999.14 998.99 998.85 998.88 999.07 999.39 999.76 1000.03 1000.31 1000.66 1001.06 1001.74 1002.55 1003.10 1004.01 1004.49 1004.62 1005.40 1006.23 1006.63 1007.19 1007.54 1007.83 1008.01 1007.66 1008.38 1008.77 1009.03 1009.33 1009.92 1010.75 1011.67 1012.25 1012.50 1012.75 1013.19
Wind_Speed
11 12 11 10 9 7 8 4 2 4 4 7 3 5 1 9 17 22 24 30 31 31 30 30 29 27 27 27 27 25 22 23 20 19 17 16 15 14
8 12 12 10 11 8 8 8 7 5 5 3 5 15 9 8 21 23 23 27 30 30 28 28 27 28 25 26 26 25 20 20 21 21 19 17 16 15
11 13 15 14 10 10 8 9 7 7 7 6 8 13 20 8 8 22 20 22 19 29 27 30 30 29 27 27 26 25 23 21 21 21 20 18 17 16
12 13 14 11 14 13 10 13 9 8 6 13 8 9 15 10 7 22 18 19 20 25 26 30 31 31 30 29 27 26 23 22 20 20 19 19 19 17
13 13 14 14 14 12 12 12 9 8 8 6 8 6 8 12 3 13 19 20 17 25 29 31 31 32 33 30 29 27 23 22 17 17 17 18 18 17
13 14 14 15 15 15 13 13 11 9 8 7 7 9 8 11 9 6 16 18 17 18 23 26 29 32 33 34 30 28 26 25 18 18 17 16 15 16
13 13 14 17 21 19 11 12 13 10 8 8 6 7 8 7 9 3 11 17 18 17 16 16 17 17 18 27 27 32 29 27 21 18 19 18 16 15
14 14 14 17 19 24 25 25 16 11 12 9 6 8 9 8 8 8 10 16 15 18 18 14 17 17 17 16 27 31 32 32 26 21 20 20 17 15
15 13 12 11 16 15 20 25 25 27 22 11 11 8 8 8 8 9 8 15 13 16 18 15 15 15 15 17 30 29 31 33 30 27 24 22 20 17
14 15 15 15 14 14 15 16 16 13 15 13 12 9 8 9 7 5 8 9 7 16 20 12 13 14 14 14 31 30 29 32 31 29 26 25 22 20
13 14 15 16 19 22 14 15 15 13 13 18 15 14 15 12 10 5 5 6 2 13 18 10 10 11 12 12 16 31 29 29 32 32 29 27 24 22
13 14 22 19 22 23 15 14 14 12 11 11 10 14 13 10 13 5 4 5 4 3 13 12 13 8 5 8 14 15 15 28 31 31 33 30 27 13
10 10 10 21 23 25 24 14 14 12 12 10 9 8 9 9 6 5 4 4 3 3 6 4 14 11 5 5 10 14 15 14 13 18 29 30 33 22
13 10 12 21 21 22 20 22 24 19 8 8 8 8 8 8 7 6 6 6 6 7 7 8 4 17 7 6 9 11 13 14 14 14 13 19 27 24
10 14 21 21 22 19 23 23 22 12 10 9 9 8 7 6 6 6 6 7 8 6 4 2 3 11 12 12 12 13 15 11 14 14 13 15 15 14
15 13 14 14 18 16 15 14 10 8 9 9 8 6 5 6 6 5 5 5 4 3 5 5 2 1 7 6 12 15 15 11 14 14 14 13 13 14
13 9 8 9 9 8 10 10 9 9 9 9 9 8 8 6 5 4 2 3 4 2 1 2 5 4 2 6 10 12 14 11 15 15 13 13 13 14
11 10 10 10 10 10 9 11 10 12 9 6 10 9 9 8 7 5 5 6 6 5 3 3 3 3 2 2 4 12 12 11 12 16 14 13 13 13
10 9 10 10 10 9 10 9 11 10 10 9 6 10 9 8 11 7 7 7 7 4 5 3 5 4 4 4 1 6 13 11 12 13 14 14 14 15
9 9 9 9 10 10 9 10 9 9 10 10 10 9 10 9 9 9 8 9 8 7 5 3 7 8 9 5 4 4 7 11 12 14 13 10 2 8
7 8 8 8 8 10 9 8 10 9 10 10 10 10 9 7 8 8 8 12 10 7 9 8 7 6 3 5 3 1 9 7 19 16 12 13 10 5
8 8 7 8 8 8 10 9 9 10 11 11 11 10 10 10 10 9 9 9 9 8 7 4 5 3 4 5 10 4 8 8 2 11 21 17 13 10
8 7 7 7 7 8 9 10 10 10 10 9 10 10 10 10 10 10 9 9 9 8 7 5 7 7 5 10 6 7 11 12 10 8 9 10 6 8
Wind_Direction
270 267 264 260 258 256 259 241 272 311 312 286 209 212 248 208 175 171 175 175 176 177 176 170 168 168 170 166 161 162 173 164 154 155 156 153 145 136
265 265 263 260 258 249 245 248 238 237 262 310 330 323 312 279 172 171 178 173 176 174 174 166 165 163 166 162 159 159 166 159 162 163 163 155 146 139
264 264 264 259 256 252 243 245 236 230 259 283 289 309 309 217 238 170 171 176 177 175 170 165 162 163 160 157 158 158 161 162 164 169 165 159 153 149
263 261 261 259 254 252 249 247 239 239 241 275 293 298 306 276 222 183 172 178 176 178 165 166 165 161 157 157 157 157 163 158 169 169 166 161 159 158
261 259 260 260 255 250 244 245 249 241 230 248 279 290 294 300 220 192 170 176 176 168 167 166 167 163 158 158 158 157 156 153 169 165 161 160 161 163
258 257 257 256 256 254 245 243 241 233 243 239 254 265 257 281 310 221 181 173 172 169 174 169 165 164 163 159 161 158 152 155 164 164 157 156 162 167
258 254 253 254 257 258 254 239 245 246 240 242 249 264 270 297 286 256 201 170 172 168 166 171 169 163 166 165 163 160 155 156 160 165 161 158 163 169
261 258 252 253 254 252 250 250 245 244 241 249 244 252 265 278 301 309 220 171 167 177 167 167 169 173 170 170 174 167 160 157 161 165 165 164 166 168
258 254 252 250 249 252 250 248 243 240 239 240 252 247 266 271 291 316 316 182 171 163 165 166 171 171 171 171 169 174 165 161 163 167 167 168 169 169
254 255 251 247 246 245 249 244 245 247 246 239 232 247 257 275 302 327 325 307 174 166 165 164 168 167 170 172 172 171 172 164 163 168 169 170 172 172
254 254 255 249 241 246 241 247 245 240 247 252 260 260 241 265 275 318 316 328 139 173 169 148 159 151 167 168 173 171 173 171 167 167 171 172 173 171
252 251 254 248 245 242 240 241 241 242 233 240 241 248 260 249 247 242 283 293 321 145 177 155 158 136 141 169 171 175 174 176 172 174 172 171 172 173
251 251 247 248 249 245 238 232 236 233 236 231 235 226 225 229 233 221 236 262 304 300 343 109 165 154 94 131 163 177 177 175 178 175 178 176 173 178
252 247 249 250 249 248 248 238 231 231 219 222 226 226 229 221 212 205 216 245 252 276 347 360 186 168 124 144 162 163 182 176 176 176 179 181 185 189
248 252 251 245 247 249 245 242 236 220 210 207 217 221 221 218 213 186 206 224 250 260 272 295 344 188 173 155 161 172 165 180 181 174 173 179 180 186
262 260 254 248 248 234 237 238 237 233 208 206 206 206 205 200 203 195 189 185 225 254 203 208 232 323 180 162 166 164 173 171 177 181 176 178 182 192
239 238 234 234 227 255 219 223 223 224 223 199 194 188 192 196 198 177 155 154 195 221 198 153 189 203 249 142 166 174 176 168 179 174 170 177 189 192
232 227 224 224 223 215 232 211 213 219 212 228 186 183 183 191 194 189 193 213 219 219 212 144 120 88 26 337 202 170 175 174 174 175 178 182 189 193
257 254 224 218 220 222 212 213 207 204 209 201 201 179 183 187 195 190 186 199 212 195 209 171 159 159 173 185 183 242 171 173 165 176 180 186 192 196
253 250 244 221 215 218 215 207 210 204 202 203 202 193 185 188 192 194 191 196 201 213 212 190 190 194 200 191 161 192 211 157 171 175 182 190 143 127
265 251 243 236 224 214 214 209 205 210 201 200 205 201 191 188 190 193 194 206 203 199 208 214 212 186 145 98 89 183 186 206 179 172 174 179 173 143
263 260 256 242 235 217 213 211 207 211 213 202 201 201 196 193 202 200 196 205 210 214 219 208 216 163 169 188 206 162 183 180 166 188 178 163 161 168
273 258 249 252 236 228 217 210 210 210 210 202 202 203 193 195 200 200 198 206 212 209 202 188 187 206 193 209 214 188 179 180 178 179 195 184 120 109